COSMOS 2226

Satellite information

Favourite Embed

Satellite Type and Status

PAYLOADIN ORBIT

Key statistics

Satellite COSMOS 2226 at a glance.

Uptime

11886

Days in orbit

Revolutions

≈ 12.4

Per day

Orbit

LEO

Low Earth Orbit

Inclination

73.6

Latest

Satellite identification and parameters

Extended collection of information and parameters for COSMOS 2226.

Object identification

Identified? True

Debris? False

Object name: COSMOS 2226

International designator: 1992-092A

Object number (NORAD): 22282

Object ID (CCSDS): 22282

Country: COMMONWEALTH OF INDEPENDENT STATES (CIS)

Current information (Y/N): Y

RCS size: LARGE

Orbital parameters

Period: 116.008 minutes

Inclination: 73.6212 deg

SMA: 7879.244 km

Apoapsis: 1524.02 km

Periapsis: 1478.197 km

RAAN: 207.4686 deg

Eccentricy: 0.0029078

Argument of periapsis: 161.9477 deg

Mean anomaly: 310.1063 deg

Mean motion: 12.41297768 rev/day

Mean motion (dot): 0.00000005 rev/day2

B* drag term: 0.00016453 1/REarth

Two-line elements (TLE)

Creation date: July 7, 2025, 6:34 p.m.

Reference frame: TEME

Reference center: EARTH

Epoch: July 7, 2025, 12:29 p.m. UTC

TLE line 0: 0 COSMOS 2226

TLE line 1: 1 22282U 92092A 25188.52077466 .00000005 00000-0 16453-3 0 9996

TLE line 2: 2 22282 73.6212 207.4686 0029078 161.9477 310.1063 12.41297768474436

Live tracking on map

Real-time ground track for satellite COSMOS 2226.

In-orbit conjunctions

A list of the most updated potential collisions computed for object COSMOS 2226.

Target Orbit TCA Probability of collision Miss distance Type
COSMOS 448 LEO 2024-07-11 20:22:37 0.02620103 81.0 (m) PAYLOAD

Associated space launch

A satellite for the GEO-IK geodetic system

COSMOS 2226 was lifted into orbit during the mission ‘Tsiklon-3 | Geo-IK 13’, on board a Tsiklon-3 space rocket.

The launch took place on Dec. 22, 1992, 12:36 p.m. from 32/2.

For more information about the launch, click the button.

Launch to space Tsiklon-3 | Geo-IK 13
Tsiklon-3 | Geo-IK 13

Agency: N/A

Status: Launch Successful

Launch date: Dec. 22, 1992, 12:36 p.m. UTC

Rocket: Tsiklon-3

Launch pad: 32/2

Location: Plesetsk Cosmodrome, Russian Federation

...

Latest news about this satellite

There are no fresh news available about this satellite. Check back as we update our databases every day.


Newsletter sign-up

Weekly statistics, charts and insights to help you stay on top of the space industry.